Location: Limoges
(45.8354°N, 1.2645°E)
Time: 07:48:27
(UTC+01:00)

BlueWalker 3 - Visible Passes

Search period start: 01 December 2023 00:00
Search period end: 11 December 2023 00:00
Orbit: 489 x 504 km, 53.2° (Epoch: 29 November)

Date Brightness Start Highest point End Pass type
(mag) Time Alt. Az. Time Alt. Az. Time Alt. Az.
01 Dec 4.1 05:24:08 23° ENE 05:24:08 23° ENE 05:26:00 10° E visible
01 Dec 1.9 06:58:41 21° WNW 07:01:08 74° SSW 07:04:56 10° SE visible
02 Dec 4.9 05:02:34 15° ENE 05:02:34 15° ENE 05:03:23 10° E visible
02 Dec 1.8 06:37:08 38° WNW 06:38:30 75° SW 06:42:18 10° SE visible
03 Dec 1.7 06:15:37 71° WSW 06:15:53 75° SW 06:19:41 10° SE visible
04 Dec 2.6 05:54:09 49° SE 05:54:09 49° SE 05:57:02 10° SE visible
04 Dec 4.1 07:29:15 10° W 07:31:01 13° SW 07:32:46 10° SSW visible
05 Dec 4.0 05:32:43 24° SE 05:32:43 24° SE 05:34:22 10° SE visible
05 Dec 4.0 07:07:18 12° WSW 07:08:21 13° SW 07:10:10 10° SSW visible
06 Dec 4.9 05:11:22 12° SE 05:11:22 12° SE 05:11:42 10° SE visible
06 Dec 4.0 06:45:57 13° SW 06:45:57 13° SW 06:47:32 10° SSW visible
07 Dec 4.4 06:24:38 11° SSW 06:24:38 11° SSW 06:24:53 10° SSW visible
